Location: Callao
(39.8979°N, 113.7141°W)
Time: 17:39:02
(UTC+00:00)

AO-91 - Pass Details

Date: 13 May 2021
Orbit: 453 x 808 km, 97.7° (Epoch: 15 June)

Event Time Altitude Azimuth Distance (km) Brightness Sun altitude
Rises 07:44:46 0° 0° (N) 2,708 ? -31.5°
Reaches altitude 10° 07:46:58 10° 350° (N) 1,865 ? -31.5°
Enters shadow 07:48:50 23° 329° (NNW) 1,281 ? -31.5°
